Location: Les Moreaux
(47.2278°N, 1.4966°E)
Time: 21:39:40
(UTC+00:00)

Cosmos-2242 - Pass Details

Date: 19 May 2025
Orbit: 569 x 594 km, 82.5° (Epoch: 18 June)

Event Time Altitude Azimuth Distance (km) Brightness Sun altitude
Exits shadow 21:27:32 - 207° (SSW) 2,252 5.7 -15.5°
Reaches altitude 10° 21:28:22 10° 210° (SSW) 1,927 5.3 -15.6°
Maximum altitude 21:32:29 46° 284° (WNW) 807 4.0 -16.0°
Drops below altitude 10° 21:36:36 10° 358° (N) 1,938 6.5 -16.4°
Sets 21:38:54 0° 5° (N) 2,841 7.4 -16.6°
